This demonstration page uses our WeatherBlox Daily Observations layout. Learn more.

Left ArrowRight Arrow

Hourly Observations for April 29, 2018

Temp ( °F °C ) Dew Point ( °F °C ) Humidity (%) Winds ( mph kmh ) Pressure ( in mb ) Visibility ( mi km ) Precip ( " mm )
12:53 am 00:53 Clear 50 10 34 1.1 54 54 SE 14 22 30.08 1019 10 16 0.00 0.00
1:53 am 01:53 Clear 50 10 35 1.7 57 57 SE 13 20 30.07 1018 10 16 0.00 0.00
2:53 am 02:53 Clear 50 10 35 1.7 57 57 SSE 12 19 30.04 1017 10 16 0.00 0.00
3:53 am 03:53 Clear 49 9.4 35 1.7 59 59 SSE 10 17 30.04 1017 10 16 0.00 0.00
4:53 am 04:53 Mostly Cloudy 49 9.4 36 2.2 61 61 SSE 13 20 30.04 1017 10 16 0.00 0.00
5:53 am 05:53 Clear 48 8.9 35 1.7 61 61 SE 13 20 30.03 1017 10 16 0.00 0.00
6:53 am 06:53 Partly Cloudy with Light Rain 48 8.9 37 2.8 66 66 SE 14 22 30.02 1017 10 16 0.00 0.03
7:53 am 07:53 Sunny 49 9.4 36 2.2 61 61 SSE 15 24 30.02 1017 10 16 0.00 0.03
8:53 am 08:53 Sunny 51 10.6 36 2.2 56 56 SSE 18 30 30.01 1016 10 16 0.00 0.00
9:53 am 09:53 Sunny 57 13.9 39 3.9 51 51 SSE 23 37 29.99 1016 10 16 0.00 0.00
10:53 am 10:53 Sunny 61 16.1 40 4.4 46 46 S 23 37 29.97 1015 10 16 0.00 0.00
11:53 am 11:53 Sunny 68 20 43 6.1 40 40 SSE 22 35 29.93 1014 10 16 0.00 0.00
12:53 pm 12:53 Sunny 74 23.3 45 7.2 36 36 SSE 24 39 29.89 1012 10 16 0.00 0.00
1:53 pm 13:53 Sunny 78 25.6 46 7.8 32 32 SSE 25 41 29.85 1011 10 16 0.00 0.00
2:53 pm 14:53 Sunny 80 26.7 48 8.9 33 33 SSE 26 43 29.81 1009 10 16 0.00 0.00
3:53 pm 15:53 Sunny 80 26.7 49 9.4 34 34 S 25 41 29.80 1009 10 16 0.00 0.00
4:53 pm 16:53 Sunny 78 25.6 49 9.4 36 36 S 28 44 29.79 1009 10 16 0.00 0.00
5:53 pm 17:53 Sunny 77 25 49 9.4 37 37 S 25 41 29.78 1009 10 16 0.00 0.00
6:53 pm 18:53 Sunny 76 24.4 51 10.6 42 42 S 26 43 29.76 1008 10 16 0.00 0.00
7:53 pm 19:53 Sunny 74 23.3 51 10.6 45 45 S 21 33 29.76 1008 10 16 0.00 0.00
8:53 pm 20:53 Clear 72 22.2 50 10 46 46 SSE 22 35 29.77 1008 10 16 0.00 0.00
9:53 pm 21:53 Clear 71 21.7 49 9.4 46 46 S 22 35 29.77 1008 10 16 0.00 0.00
10:53 pm 22:53 Clear 70 21.1 48 8.9 46 46 S 21 33 29.78 1008 10 16 0.00 0.00
11:53 pm 23:53 Clear 69 20.6 48 8.9 47 47 S 18 30 29.78 1008 10 16 0.00 0.00

Powered by AerisWeather